Change the Weather History Date:

Tuesday, September 2, 2014

  Actual Average Record
Temperature  
Mean Temperature 84 °F -  
Max Temperature 92 °F 88 °F - ()
Min Temperature 77 °F 74 °F - ()
Cooling Degree Days 20    
Growing Degree Days 34 (Base 50)    
Moisture  
Dew Point 74 °F    
Average Humidity 74    
Maximum Humidity 89    
Minimum Humidity 44    
Precipitation  
Precipitation 0.00 in 0.38 in - ()
Sea Level Pressure  
Sea Level Pressure 29.82 in    
Wind  
Wind Speed 4 mph ()    
Max Wind Speed 9 mph    
Max Gust Speed -    
Visibility 6.8 miles    
Events      
T = Trace of Precipitation, MM = Missing Value Source: Averaged Metar Reports

Daily Weather History Graph

Daily Weather History Graph

Search for Another Location

Airport or City:

Trip Planner

Search our weather history database for the weather conditions in past years. The results will help you decide how hot, cold, wet, or windy it might be!

Date:

Astronomy

Sep. 02, 2014 Rise Set
Actual Time 6:08 AM MYT 6:22 PM MYT
Civil Twilight 5:47 AM MYT 6:43 PM MYT
Nautical Twilight 5:23 AM MYT 7:07 PM MYT
Astronomical Twilight 4:59 AM MYT 7:32 PM MYT
Moon 11:58 AM MYT (9/2) No Moon Set
Length of Visible Light 12h 55m
Length of Day
12h 13m
Waxing Crescent, 47% of the Moon is Illuminated
Sep 2
Waxing Crescent
Sep 2
First Quarter
Sep 9
Full
Sep 16
Last Quarter
Sep 24
New

Hourly Weather History & Observations

Time (MYT) Temp. Heat Index Dew Point Humidity Pressure Visibility Wind Dir Wind Speed Gust Speed Precip Events Conditions
12:00 AM 80.6 °F 86.2 °F 75.2 °F 84% 29.86 in 6.2 mi East 2.3 mph - N/A   Mostly Cloudy
12:30 AM 78.8 °F - 75.2 °F 89% 29.86 in 6.2 mi ESE 4.6 mph - N/A   Mostly Cloudy
1:00 AM 78.8 °F - 75.2 °F 89% 29.83 in 6.2 mi ESE 4.6 mph - N/A   Mostly Cloudy
1:30 AM 78.8 °F - 75.2 °F 89% 29.83 in 6.2 mi East 3.5 mph - N/A   Mostly Cloudy
2:00 AM 79 °F - 74 °F 82% 29.82 in 11 mi East 2.3 mph - -   Scattered Clouds
2:00 AM 78.8 °F - 75.2 °F 89% 29.80 in 6.2 mi East 2.3 mph - N/A   Mostly Cloudy
2:30 AM 78.8 °F - 73.4 °F 83% 29.80 in 6.2 mi East 2.3 mph - N/A   Mostly Cloudy
3:00 AM 78.8 °F - 75.2 °F 89% 29.80 in 6.2 mi East 3.5 mph - N/A   Mostly Cloudy
3:30 AM 78.8 °F - 73.4 °F 83% 29.80 in 6.2 mi East 3.5 mph - N/A   Mostly Cloudy
4:00 AM 78.8 °F - 73.4 °F 83% 29.80 in 6.2 mi ESE 3.5 mph - N/A   Mostly Cloudy
4:30 AM 77.0 °F - 73.4 °F 89% 29.77 in 6.2 mi ESE 4.6 mph - N/A   Mostly Cloudy
5:00 AM 78 °F - 74 °F 84% 29.79 in 11 mi East 3.5 mph - -   Scattered Clouds
5:00 AM 77.0 °F - 73.4 °F 89% 29.77 in 6.2 mi East 3.5 mph - N/A   Mostly Cloudy
5:30 AM 77.0 °F - 73.4 °F 89% 29.77 in 6.2 mi ESE 3.5 mph - N/A   Mostly Cloudy
6:00 AM 77.0 °F - 73.4 °F 89% 29.80 in 6.2 mi ESE 2.3 mph - N/A   Mostly Cloudy
6:30 AM 77.0 °F - 73.4 °F 89% 29.80 in 6.2 mi ESE 3.5 mph - N/A   Mostly Cloudy
7:00 AM 78.8 °F - 73.4 °F 83% 29.80 in 6.2 mi East 3.5 mph - N/A   Mostly Cloudy
7:30 AM 78.8 °F - 73.4 °F 83% 29.83 in 6.2 mi East 3.5 mph - N/A   Mostly Cloudy
8:00 AM 81 °F - 74 °F 75% 29.86 in 11 mi ESE 4.6 mph - -   Haze
8:00 AM 80.6 °F 86.2 °F 75.2 °F 84% 29.83 in 6.2 mi ESE 4.6 mph - N/A   Mostly Cloudy
8:30 AM 82.4 °F 89.5 °F 75.2 °F 79% 29.86 in 6.2 mi SE 4.6 mph - N/A   Mostly Cloudy
9:00 AM 84.2 °F 92.3 °F 75.2 °F 74% 29.86 in 6.2 mi ESE 3.5 mph - N/A   Mostly Cloudy
9:30 AM 86.0 °F 95.1 °F 75.2 °F 70% 29.86 in 6.2 mi NW 1.2 mph - N/A   Mostly Cloudy
10:00 AM 87.8 °F 97.6 °F 75.2 °F 66% 29.86 in 6.2 mi NW 2.3 mph - N/A   Mostly Cloudy
10:30 AM 89.6 °F 99.8 °F 75.2 °F 62% 29.86 in 6.2 mi NW 3.5 mph - N/A   Mostly Cloudy
11:00 AM 90 °F - 71 °F 44% 29.86 in 11 mi North 4.6 mph - -   Haze
11:00 AM 89.6 °F 96.2 °F 71.6 °F 55% 29.86 in 6.2 mi North 4.6 mph - N/A   Mostly Cloudy
11:30 AM 91.4 °F 98.4 °F 71.6 °F 52% 29.83 in 6.2 mi North 5.8 mph - N/A   Mostly Cloudy
12:00 PM 89.6 °F 96.2 °F 71.6 °F 55% 29.83 in 6.2 mi North 5.8 mph - N/A   Mostly Cloudy
12:30 PM 91.4 °F 100.1 °F 73.4 °F 55% 29.83 in 6.2 mi NNW 6.9 mph - N/A   Mostly Cloudy
1:00 PM 91.4 °F 100.1 °F 73.4 °F 55% 29.80 in 6.2 mi NNW 6.9 mph - N/A   Mostly Cloudy
1:30 PM 91.4 °F 98.4 °F 71.6 °F 52% 29.80 in 6.2 mi NNW 8.1 mph - N/A   Mostly Cloudy
2:00 PM 91 °F - 74 °F 49% 29.80 in 11 mi NNW 6.9 mph - -   Haze
2:00 PM 91.4 °F 102.5 °F 75.2 °F 59% 29.80 in 6.2 mi NNW 6.9 mph - N/A   Mostly Cloudy
2:30 PM 91.4 °F 96.8 °F 69.8 °F 49% 29.77 in 6.2 mi North 5.8 mph - N/A   Mostly Cloudy
3:00 PM 91.4 °F 98.4 °F 71.6 °F 52% 29.77 in 6.2 mi North 5.8 mph - N/A   Mostly Cloudy
3:30 PM 91.4 °F 100.1 °F 73.4 °F 55% 29.77 in 6.2 mi North 6.9 mph - N/A   Mostly Cloudy
4:00 PM 89.6 °F 99.8 °F 75.2 °F 62% 29.77 in 6.2 mi North 9.2 mph - N/A   Mostly Cloudy
4:30 PM 86.0 °F 95.1 °F 75.2 °F 70% 29.77 in 6.2 mi North 6.9 mph - N/A   Mostly Cloudy
5:00 PM 86 °F - 77 °F 69% 29.79 in 11 mi North 6.9 mph - -   Haze
5:00 PM 86.0 °F 96.9 °F 77.0 °F 74% 29.77 in 6.2 mi North 6.9 mph - N/A   Mostly Cloudy
5:30 PM 86.0 °F 96.9 °F 77.0 °F 74% 29.77 in 6.2 mi North 5.8 mph - N/A   Mostly Cloudy
6:00 PM 84.2 °F 94.1 °F 77.0 °F 79% 29.80 in 6.2 mi NNE 6.9 mph - N/A   Mostly Cloudy
6:30 PM 84.2 °F 94.1 °F 77.0 °F 79% 29.80 in 6.2 mi NNE 6.9 mph - N/A   Mostly Cloudy
7:00 PM 84.2 °F 92.3 °F 75.2 °F 74% 29.80 in 6.2 mi ENE 6.9 mph - N/A   Mostly Cloudy
7:30 PM 84.2 °F 92.3 °F 75.2 °F 74% 29.83 in 6.2 mi ENE 6.9 mph - N/A   Mostly Cloudy
8:00 PM 83 °F - 76 °F 73% 29.84 in 9 mi NE 4.6 mph - -   Haze
8:00 PM 84.2 °F 92.3 °F 75.2 °F 74% 29.83 in 6.2 mi NE 4.6 mph - N/A   Mostly Cloudy
8:30 PM 82.4 °F 90.9 °F 77.0 °F 84% 29.83 in 6.2 mi ENE 4.6 mph - N/A   Mostly Cloudy
9:00 PM 82.4 °F 89.5 °F 75.2 °F 79% 29.86 in 6.2 mi ENE 4.6 mph - N/A   Mostly Cloudy
9:30 PM 82.4 °F 90.9 °F 77.0 °F 84% 29.86 in 6.2 mi ESE 3.5 mph - N/A   Mostly Cloudy
10:00 PM 80.6 °F 87.1 °F 77.0 °F 89% 29.86 in 6.2 mi East 3.5 mph - N/A   Mostly Cloudy
10:30 PM 80.6 °F 86.2 °F 75.2 °F 84% 29.86 in 6.2 mi ESE 4.6 mph - N/A   Mostly Cloudy
11:00 PM 80 °F - 75 °F 81% 29.87 in 9 mi East 3.5 mph - -   Haze
11:00 PM 80.6 °F 86.2 °F 75.2 °F 84% 29.86 in 6.2 mi East 3.5 mph - N/A   Mostly Cloudy
11:30 PM 78.8 °F - 73.4 °F 83% 29.86 in 6.2 mi East 5.8 mph - N/A   Mostly Cloudy